Regional Weather Roundup
Issued by NWS

Home | Current Version | Previous Version | Graphics & Text | Print | Product List | Glossary On
Versions: 1 2 3 4 5 6 7 8 9 10 11 12 13 14 15 16 17 18 19 20 21 22 23 24 25 26 27 28 29 30 31 32 33 34 35 36 37 38 39 40 41 42 43 44 45 46 47 48 49 50
000
ASUS43 KMPX 270301
RWRMN
WEATHER ROUNDUP FOR MINNESOTA
NATIONAL WEATHER SERVICE TWIN CITIES/CHANHASSEN MN
1000 PM CDT FRI AUG 26 2016


NOTE: "FAIR" INDICATES FEW OR NO CLOUDS BELOW 12,000 FEET WITH NO
SIGNIFICANT WEATHER AND/OR OBSTRUCTIONS TO VISIBILITY. N/A MEANS
CURRENT SKY AND/OR WEATHER CONDITIONS ARE NOT AVAILABLE.

MNZ060>063-068>070-270400-
   Twin Cities Metro

CITY           SKY/WX    TMP DP  RH WIND       PRES   REMARKS
TWIN CITIES    CLOUDY    66  56  70 SE5       30.13S
ST PAUL        CLOUDY    64  57  78 SE3       30.13S
CRYSTAL        CLOUDY    63  55  75 SE3       30.11S
BLAINE         CLOUDY    63  57  82 S3        30.13S
LAKEVILLE      CLOUDY    61  61 100 CALM      30.14S
EDEN PRAIRIE   CLOUDY    65  56  72 SE6       30.12S
LAKEVILLE      CLOUDY    61  61 100 CALM      30.14S
SOUTH ST PAUL  CLOUDY    65  55  69 CALM      30.13S
LAKE ELMO      FAIR      61  59  94 CALM      30.15S
$$
MNZ001>005-007-008-013>017-022>024-027-028-270400-
   Northwest Minnesota

CITY           SKY/WX    TMP DP  RH WIND       PRES   REMARKS
BEMIDJI        CLOUDY    64  53  68 S3        30.06S
HALLOCK        CLEAR     63  54  72 S8        29.99R
ROSEAU         PTCLDY    64  55  72 SW10      30.01S
WARROAD        CLOUDY    64  55  72 SW6       30.02R
THIEF RVR FALL PTCLDY    60  53  77 S7        30.04R
CROOKSTON      PTCLDY    61  55  82 S8        30.03S
FOSSTON        CLOUDY    61  54  77 SW3       30.07S
DETROIT LAKES  MOCLDY    64  54  68 CALM      30.09R
MOORHEAD       CLOUDY    63  55  77 CALM      30.07R
PARK RAPIDS    CLOUDY    62  53  72 S6        30.08R
MAHNOMEN       CLOUDY    62  55  79 CALM      30.07R
$$
MNZ006-009>011-018-025>026-270400-
   North Central Minnesota

CITY           SKY/WX    TMP DP  RH WIND       PRES   REMARKS
BAUDETTE       MOCLDY    61  52  72 S8        30.03R
FLAG ISLAND    MOCLDY    70  57  64 CALM      29.99R HAZE
INTL FALLS     PTCLDY    53  49  86 CALM      30.05S
WASKISH        CLOUDY    63  55  77 CALM      30.05S
BIG FORK       CLOUDY    54  52  94 CALM      30.08S
LONGVILLE      MOCLDY    61  54  77 S3        30.08S
GRAND RAPIDS   CLOUDY    60  54  80 S6        30.10S
CRANE LAKE     CLEAR     52  50  93 CALM      30.09S
ORR            CLOUDY    57  50  77 CALM      30.06S
COOK           CLOUDY    55  52  88 CALM      30.09S
WALKER         CLOUDY    59  54  83 CALM      30.08R
$$
MNZ012-019>021-037-270400-
   Northeast Minnesota

CITY           SKY/WX    TMP DP  RH WIND       PRES   REMARKS
DULUTH         CLOUDY    61  55  81 S7        30.11S
ELY            CLOUDY    57  50  77 S5        30.10F
HIBBING        PTCLDY    52  50  93 CALM      30.09S
EVELETH        PTCLDY    55  53  92 CALM      30.11F
DULUTH HARBOR  PTCLDY    64  57  77 S9        30.11S
TWO HARBORS    PTCLDY    57  54  88 CALM      30.09F
SILVER BAY     PTCLDY    54  54 100 CALM      30.10F
G MARAIS ARPRT CLOUDY    52  48  87 CALM      30.16S
$$
MNZ029>031-032-039>041-046>048-054>057-064-270400-
   West Central Minnesota

CITY           SKY/WX    TMP DP  RH WIND       PRES   REMARKS
FERGUS FALLS   CLOUDY    63  55  77 S5        30.09R
MORRIS         MOCLDY    61  57  88 CALM      30.08R
ALEXANDRIA     PTCLDY    62  54  74 S7        30.11R
ELBOW LAKE     CLOUDY    62  57  86 SE7       30.09R
WADENA         CLOUDY    57  54  88 S5        30.09R
GLENWOOD       PTCLDY    59  55  88 SE5       30.10S
APPLETON       PTCLDY    64  55  72 SE6       30.08S
BENSON         PTCLDY    63  54  72 S6        30.09S
ORTONVILLE     CLOUDY    64  57  77 CALM      30.07S
MADISON        CLOUDY    63  59  88 SE6       30.09R
WILLMAR        FAIR      63  57  82 SE5       30.11S
$$
MNZ033>034-036-042>043-049>051-058-059-270400-
   Central Minnesota

CITY           SKY/WX    TMP DP  RH WIND       PRES   REMARKS
ST CLOUD       CLOUDY    59  57  93 SE6       30.11S
SAUK CENTRE    FAIR      60  56  88 SE6       30.10S
PAYNESVILLE    CLOUDY    64  55  74 SE8       30.11S
AITKIN         PTCLDY    61  52  72 S3        30.09S
PINE RIVER     MOCLDY    61  54  77 CALM      30.12S
BRAINERD       MOCLDY    59  54  83 S5        30.10S
STAPLES        PTCLDY    57  52  82 CALM      30.09R
LONG PRAIRIE   FAIR      59  54  82 SE3       30.10S
LITTLE FALLS   CLOUDY    61  54  77 SE3       30.10S
LITCHFIELD     MOCLDY    64  57  77 SE3       30.12S
BUFFALO        CLOUDY    60  56  87 CALM      30.13S
MAPLE LAKE     MOCLDY    62  58  88 CALM      30.13F
HUTCHINSON     CLEAR     60  58  93 E3        30.12F
$$
MNZ037-044-045-052-053-270400-
   East Central Minnesota

CITY           SKY/WX    TMP DP  RH WIND       PRES   REMARKS
PRINCETON      PTCLDY    59  55  88 CALM      30.12S
MORA           PTCLDY    55  54  94 CALM      30.14S
CAMBRIDGE      MOCLDY    63  54  72 CALM      30.11S
RUSH CITY      CLOUDY    58  55  89 CALM      30.13S
MOOSE LAKE     PTCLDY    55  54  94 CALM      30.10S
HINCKLEY       FAIR      59  55  88 S3        30.13R
CLOQUET        PTCLDY    61  54  77 CALM      30.12R
MCGREGOR       PTCLDY    59  54  82 S3        30.11R
$$
MNZ071>073-080-081-089-090-097-098-270400-
   Southwest Minnesota

CITY           SKY/WX    TMP DP  RH WIND       PRES   REMARKS
MONTEVIDEO     PTCLDY    61  57  88 S6        30.11R
GRANITE FALLS  CLOUDY    65  59  82 E6        30.10S
CANBY          CLOUDY    63  59  87 E3        30.11R
MARSHALL       MOCLDY    64  59  83 SE9       30.09R
REDWOOD FALLS  CLOUDY    63  56  78 SE8       30.09F
OLIVIA         CLOUDY    63  55  77 SE8       30.09S
PIPESTONE      CLOUDY    64  57  77 SE8       30.09R
WINDOM         CLOUDY    63  57  82 E6        30.11F
WORTHINGTON    CLOUDY    61  59  93 E6        30.12R
JACKSON          N/A     63  57  82 E5        30.12S
TRACY          CLOUDY    64  59  85 SE5       30.10S
SLAYTON        CLOUDY    61  59  94 SE7       30.11S
$$
MNZ065>067-074>077-082>085-091>093-270400-
   South Central Minnesota

CITY           SKY/WX    TMP DP  RH WIND       PRES   REMARKS
MANKATO        CLOUDY    63  57  82 E6        30.13S
NEW ULM          N/A     64  57  77 E5        30.11F
ST JAMES       CLOUDY    59  55  88 CALM      30.13S
FAIRMONT       CLOUDY    63  60  90 E6        30.12S
GLENCOE        CLOUDY    63  61  92 CALM      30.12S
FARIBAULT      CLOUDY    63  61  94 CALM      30.14S
OWATONNA       CLOUDY    64  59  82 CALM      30.14S
WASECA         CLOUDY    63  59  88 CALM      30.14S
ALBERT LEA     CLOUDY    63  57  82 CALM      30.13F
$$
MNZ078>079-086>088-094>096-270400-
   Southeast Minnesota

CITY           SKY/WX    TMP DP  RH WIND       PRES   REMARKS
ROCHESTER      CLOUDY    63  60  90 SE5       30.15S
RED WING       CLOUDY    63  57  82 CALM      30.13R
DODGE CENTER   CLOUDY    63  57  82 CALM      30.14F
WINONA         CLOUDY    64  59  82 CALM      30.15R
AUSTIN         CLOUDY    63  59  88 CALM      30.13F
PRESTON        DRIZZLE   63  59  86 CALM      30.16S
$$
ABBREVIATIONS USED IN REMARKS
   TC - TEMPERATURES IN CELSIUS
  WCI - WIND CHILL INDEX
   HX - HEAT INDEX
  VSB - VISIBILITY
$$




USA.gov is the U.S. government's official web portal to all federal, state and local government web resources and services.